Location: Santa Barbara
(34.4500°N, 119.7700°W)
Time: 01:34:48
(UTC-07:00)

Cosmos 1892 Rocket - Visible Passes

Search period start: 24 August 2016 00:00
Search period end: 03 September 2016 00:00
Orbit: 607 x 633 km, 82.5° (Epoch: 23 August)

Date Brightness Start Highest point End Pass type
(mag) Time Alt. Az. Time Alt. Az. Time Alt. Az.
24 Aug 3.5 20:27:35 10° N 20:32:03 72° E 20:36:31 10° SSE visible
25 Aug 4.3 20:45:20 10° NNW 20:49:43 55° W 20:54:05 10° S visible
26 Aug 5.7 21:03:29 10° NNW 21:07:17 28° W 21:11:04 10° SSW visible
27 Aug 6.5 21:22:23 10° NW 21:24:46 14° W 21:27:08 10° WSW visible
28 Aug 3.6 20:00:32 10° N 20:05:02 80° E 20:09:30 10° S visible
29 Aug 4.6 20:18:20 10° NNW 20:22:41 50° W 20:27:00 10° SSW visible
30 Aug 6.0 20:36:34 10° NW 20:40:14 25° W 20:43:53 10° SW visible
31 Aug 6.8 20:55:40 10° WNW 20:57:42 13° W 20:59:43 10° WSW visible
02 Sep 4.9 19:51:22 10° NNW 19:55:38 45° W 19:59:53 10° SSW visible
